TimeBST,TemperatureF,Dew PointF,Humidity,Sea Level PressureIn,VisibilityMPH,Wind Direction,Wind SpeedMPH,Gust SpeedMPH,PrecipitationIn,Events,Conditions,WindDirDegrees,DateUTC
12:50 AM,51,50,93,30.26,7,ENE,8.1,,,,,70,2013-07-11 23:50:00
12:50 AM,51.8,50.0,94,30.24,6.2,ENE,8.1,-,N/A,,Unknown,70,2013-07-11 23:50:00
1:50 AM,51,49,91,30.26,6,East,6.9,,,,Mist,80,2013-07-12 00:50:00
1:50 AM,50.0,50.0,100,30.24,6.2,East,6.9,-,N/A,,Clear,80,2013-07-12 00:50:00
2:50 AM,50,49,93,30.26,6,East,6.9,,,,Mist,80,2013-07-12 01:50:00
2:50 AM,50.0,48.2,94,30.24,6.2,East,6.9,-,N/A,,Clear,80,2013-07-12 01:50:00
3:50 AM,50,49,95,30.25,7,East,8.1,,,,Mist,80,2013-07-12 02:50:00
3:50 AM,50.0,50.0,100,30.24,6.2,East,8.1,-,N/A,,Partly Cloudy,80,2013-07-12 02:50:00
4:50 AM,49,49,98,30.25,7,East,8.1,,,Fog,Light Fog,80,2013-07-12 03:50:00
4:50 AM,50.0,48.2,94,30.24,6.2,East,8.1,-,N/A,Fog,Partly Cloudy,80,2013-07-12 03:50:00
5:50 AM,50,49,96,30.25,4,ENE,9.2,,,Fog,Light Fog,70,2013-07-12 04:50:00
5:50 AM,50.0,50.0,100,30.24,4.3,ENE,9.2,-,N/A,Fog,Fog,70,2013-07-12 04:50:00
6:50 AM,54,53,96,30.26,4,East,8.1,,,Fog,Light Fog,80,2013-07-12 05:50:00
6:50 AM,53.6,53.6,100,30.24,3.7,East,8.1,-,N/A,Fog,Fog,80,2013-07-12 05:50:00
7:50 AM,57,55,92,30.27,4,East,6.9,,,,Haze,80,2013-07-12 06:50:00
7:50 AM,57.2,55.4,94,30.27,4.3,East,6.9,-,N/A,,Haze,80,2013-07-12 06:50:00
8:50 AM,59,55,83,30.29,6,ESE,11.5,,,,Haze,110,2013-07-12 07:50:00
8:50 AM,59.0,55.4,88,30.27,6.2,ESE,11.5,-,N/A,,Mostly Cloudy,110,2013-07-12 07:50:00
9:50 AM,59,55,82,30.30,6,East,11.5,,,,Haze,100,2013-07-12 08:50:00
9:50 AM,59.0,55.4,88,30.27,6.2,East,11.5,-,N/A,,Mostly Cloudy,100,2013-07-12 08:50:00
10:50 AM,60,56,81,30.29,6,East,12.7,,,,Haze,100,2013-07-12 09:50:00
10:50 AM,60.8,55.4,82,30.27,6.2,East,12.7,-,N/A,,Mostly Cloudy,100,2013-07-12 09:50:00
11:50 AM,62,56,75,30.29,9,East,16.1,,,,Haze,90,2013-07-12 10:50:00
11:50 AM,62.6,55.4,77,30.27,6.2,East,16.1,-,N/A,,Haze,90,2013-07-12 10:50:00
12:50 PM,64,57,73,30.28,9,East,12.7,,,,Haze,100,2013-07-12 11:50:00
12:50 PM,64.4,57.2,77,30.27,6.2,East,12.7,-,N/A,,Partly Cloudy,100,2013-07-12 11:50:00
1:50 PM,64,58,74,30.28,9,East,11.5,,,,Haze,90,2013-07-12 12:50:00
1:50 PM,64.4,57.2,77,30.27,6.2,East,11.5,-,N/A,,Partly Cloudy,90,2013-07-12 12:50:00
2:50 PM,65,59,74,30.27,9,East,10.4,,,,Haze,90,2013-07-12 13:50:00
2:50 PM,64.4,59.0,83,30.27,-9999.0,East,10.4,-,N/A,,Clear,90,2013-07-12 13:50:00
3:50 PM,65,58,73,30.27,9,East,10.4,,,,Haze,100,2013-07-12 14:50:00
3:50 PM,64.4,59.0,83,30.27,6.2,East,10.4,-,N/A,,Partly Cloudy,100,2013-07-12 14:50:00
4:50 PM,66,59,72,30.26,9,East,10.4,,,,Haze,90,2013-07-12 15:50:00
4:50 PM,66.2,59.0,78,30.24,-9999.0,East,10.4,-,N/A,,Clear,90,2013-07-12 15:50:00
5:50 PM,66,59,70,30.25,9,ENE,6.9,,,,Haze,70,2013-07-12 16:50:00
5:50 PM,66.2,59.0,78,30.24,6.2,ENE,6.9,-,N/A,,Haze,70,2013-07-12 16:50:00
6:50 PM,67,60,70,30.25,9,East,4.6,,,,Haze,80,2013-07-12 17:50:00
6:50 PM,66.2,59.0,78,30.24,6.2,East,4.6,-,N/A,,Haze,80,2013-07-12 17:50:00
7:50 PM,64,58,76,30.25,9,East,13.4,,,,Haze,90,2013-07-12 18:50:00
7:50 PM,64.4,59.0,83,30.24,6.2,East,6.9,-,N/A,,Haze,90,2013-07-12 18:50:00
8:50 PM,60.8,57.2,88,30.24,6.2,East,4.6,-,N/A,,Haze,90,2013-07-12 19:50:00
9:50 PM,58,56,90,30.27,9,East,6.9,,,,Haze,80,2013-07-12 20:50:00
9:50 PM,57.2,55.4,94,30.24,6.2,East,6.9,-,N/A,,Haze,80,2013-07-12 20:50:00
10:50 PM,56,54,90,30.28,7,ENE,6.9,,,,Haze,60,2013-07-12 21:50:00
10:50 PM,55.4,53.6,94,30.27,6.2,ENE,6.9,-,N/A,,Haze,60,2013-07-12 21:50:00
11:50 PM,56,54,90,30.27,6,ENE,5.8,,,,Haze,60,2013-07-12 22:50:00
11:50 PM,55.4,53.6,94,30.27,6.2,ENE,5.8,-,N/A,,Haze,60,2013-07-12 22:50:00